This is the latest recevied weather packets stored in our database for station/object AA8FM-13. If no packets are shown the sender has not sent any weather packets the latest 1 day(s).
| Time | Temp. | Humidity | Pressure | Rain* | Wind** | Luminosity | Snow |
|---|---|---|---|---|---|---|---|
| 1778046308 | 15.56° C | 79% | 1005.4 hPa | 0 mm | 0 m/s | 0 W/m² | - |
| 1778046003 | 15.56° C | 81% | 1005.2 hPa | 0 mm | 0 m/s | 0 W/m² | - |
| 1778045701 | 16.11° C | 82% | 1005.6 hPa | 0 mm | 0 m/s | 0 W/m² | - |
| 1778045399 | 16.11° C | 80% | 1005.4 hPa | 0 mm | 0 m/s | 0 W/m² | - |
| 1778045098 | 16.11° C | 78% | 1005.6 hPa | 0 mm | 0 m/s | 0 W/m² | - |
| 1778044795 | 16.11° C | 78% | 1005.8 hPa | 0 mm | 0 m/s | 0 W/m² | - |
| 1778044491 | 16.11° C | 78% | 1005.9 hPa | 0 mm | 0 m/s | 0 W/m² | - |
| 1778044188 | 16.11° C | 82% | 1005.8 hPa | 0 mm | 0 m/s | 0 W/m² | - |
| 1778043886 | 16.67° C | 79% | 1005.6 hPa | 0 mm | 0 m/s | 0 W/m² | - |
| 1778043583 | 16.67° C | 76% | 1006 hPa | 0 mm | 0 m/s | 0 W/m² | - |
| 1778043280 | 17.22° C | 71% | 1005.9 hPa | 0 mm | 0 m/s | 0 W/m² | - |
| 1778042976 | 17.22° C | 69% | 1006.2 hPa | 0 mm | 0 m/s | 0 W/m² | - |
| 1778042675 | 17.22° C | 69% | 1006.1 hPa | 0 mm | 0 m/s | 0 W/m² | - |
| 1778042371 | 17.22° C | 70% | 1006.1 hPa | 0 mm | 0 m/s | 0 W/m² | - |
| 1778042069 | 17.22° C | 70% | 1006.3 hPa | 0 mm | 0 m/s | 0 W/m² | - |
| 1778041766 | 16.67° C | 74% | 1006.1 hPa | 0 mm | 0 m/s | 0 W/m² | - |
| 1778041466 | 17.22° C | 76% | 1005.7 hPa | 0 mm | 0 m/s | 0 W/m² | - |
| 1778041163 | 17.78° C | 70% | 1005.6 hPa | 0 mm | 0 m/s | 0 W/m² | - |
| 1778040861 | 17.22° C | 64% | 1005.7 hPa | 0 mm | 0 m/s | 0 W/m² | - |
| 1778040558 | 17.78° C | 71% | 1005.8 hPa | 0 mm | 0 m/s | 0 W/m² | - |
| 1778040255 | 17.78° C | 64% | 1005.7 hPa | 0 mm | 0 m/s | 0 W/m² | - |
| 1778039951 | 17.78° C | 69% | 1005.9 hPa | 0 mm | 0 m/s | 0 W/m² | - |
| 1778039649 | 17.78° C | 65% | 1005.9 hPa | 0 mm | 0 m/s | 0 W/m² | - |
| 1778039345 | 17.78° C | 68% | 1005.9 hPa | 0 mm | 0 m/s | 0 W/m² | - |
| 1778039043 | 17.78° C | 67% | 1006.1 hPa | 0 mm | 0 m/s | 0 W/m² | - |
* Rain latest hour (hover to see other rain measurements)
** Current wind speed in m/s (hover to see current wind gust speed)